Powrót do katalogu

GALILEO 5 (261)

AktywnyNawigacjaMEO
NORAD 40128·PAYLOAD·🇪🇺 EU

Wystrzelony Aug 22, 2014 z Guiana Space Centre

Loading…

Następne Przeloty (najbliższe 24 godziny)

TLE

ŚwieżeSource: CelesTrak SupGP

Epoka: Sep 14, 2026, 23:59 UTC

1 40128C 14050A   26257.99979167  .00000000  00000+0  00000+0 0  2579
2 40128  48.7812 269.7438 1686594 182.8641 250.4086  1.85519795    11

Śledź GALILEO 5 (261) w czasie rzeczywistym z AllMySat

Download on the App Store